OBJECT D, 43761

Orbit data source: Space-Track

You're viewing an Uncataloged Satellite

Recently launched and/or uncataloged satellites may have evolving metadata. Metadata may include but not limited to: Owner, Maufacturer, Bus, Motor, and Mission.

OBJECT D, 43761 is a satellite in SSO that was launched on Mon, 03 Dec 2018 UTC via an FALCON 9 launch vehicle from the Air Force Western Test Range (AFWTR). Unknown objects in Earth's orbit typically refer to objects detected orbiting the Earth but have not yet been identified or cataloged. These objects could be anything from previously untracked satellites, spent rocket stages, debris from satellite collisions, or even natural meteoroids temporarily captured by Earth's gravity.

Loading next visibility...
Identifier
43761, 2018-099D
Orbit
SSO
Country
Flag of TBDTBD
Related business
None
Manufacturer
Unknown
Mission
Non-operational Amateur Technology
Bus & Motor
Unknown
Mass
Unknown
Launch date (UTC)
2018-12-03 (7 years ago)
Launch vehicle
FALCON 9
Launch site
Air Force Western Test Range (AFWTR)
Object type
Unknown
Shape & HBR
Box, 0.1 m
Radar Cross Section
0.015 m², Small (<0.1 m²)

Expand to show TLE details & history
Last TLE update: 11 hours ago

TLE from 11 hours ago
0 OBJECT D
1 43761U 18099D   26034.56181774  .00002467  00000-0  17370-3 0  9992
2 43761  97.4374  80.2164 0013298  83.7339 276.5403 15.05868873391993
Epoch: 2026-02-03T13:29Z
TLE epoch observation values (Epoch: 2026-02-03T13:29:01.052Z)
Latitude
-0.00001°
Longitude
104.22104°
Altitude
550.873 km
Speed
7.587 km/s
True Right ascension
05h 20m 51s
True Declination
0° 00' 00"
Sunlit
Object was in full shadow at epoch
Visualization orbit readout
Latitude
Unknown
Longitude
Unknown
Altitude
Unknown
Speed
Unknown
Apparent Right ascension
Unknown
Apparent Declination
Unknown
Sunlit
N/A
Visualization observer readout
Local Sidereal Time
02:04:02
Azimuth
Unknown
Elevation
Unknown
Doppler factor
Unknown
Orbital elements
Apogee altitude
555.033 km
Perigee altitude
536.618 km
Semi-major axis
6,923.963 km
Eccentricity
0.00133
Inclination
97.4374°
RAAN
80.2164°
Arg. of periapsis
83.7339°
True anomaly
276.38888°
Mean anomaly
276.5403°
Eccentric anomaly
276.46459°
Mean motion
3.76713 °/min
Orbital period
95.56 mins
BSTAR
0.0001737
Loading maneuver chart data...
Computing Atmospheric mass density...
Loading historical data...
Loading historical data...
Loading historical data...
Loading historical data...
Loading historical data...
Loading historical data...
Loading historical data...

Documentation

Showing up to 5 results
|